Year,Month,Day,Hour,Minute,Value (Times are PST for temperature in C)
2019,06,03,00,00,9.40
2019,06,03,00,01,9.40
2019,06,03,00,02,9.40
2019,06,03,00,03,9.40
2019,06,03,00,04,9.40
2019,06,03,00,05,9.40
2019,06,03,00,06,9.40
2019,06,03,00,07,9.30
2019,06,03,00,08,9.30
2019,06,03,00,09,9.30
2019,06,03,00,10,9.30
2019,06,03,00,11,9.20
2019,06,03,00,12,9.20
2019,06,03,00,13,9.20
2019,06,03,00,14,9.10
2019,06,03,00,15,9.10
2019,06,03,00,16,9.10
2019,06,03,00,17,9.10
2019,06,03,00,18,9.10
2019,06,03,00,19,9.10
2019,06,03,00,20,9.10
2019,06,03,00,21,9.10
2019,06,03,00,22,9.10
2019,06,03,00,23,9.10
2019,06,03,00,24,9.10
2019,06,03,00,25,9.10
2019,06,03,00,26,9.10
2019,06,03,00,27,9.10
2019,06,03,00,28,9.10
2019,06,03,00,29,9.10
2019,06,03,00,30,9.10
2019,06,03,00,31,9.10
2019,06,03,00,32,9.10
2019,06,03,00,33,9.10
2019,06,03,00,34,9.10
2019,06,03,00,35,9.10
2019,06,03,00,36,9.10
2019,06,03,00,37,9.10
2019,06,03,00,38,9.10
2019,06,03,00,39,9.00
2019,06,03,00,40,9.00
2019,06,03,00,41,9.00
2019,06,03,00,42,9.00
2019,06,03,00,43,9.00
2019,06,03,00,44,9.00
2019,06,03,00,45,9.00
2019,06,03,00,46,9.00
2019,06,03,00,47,8.90
2019,06,03,00,48,8.90
2019,06,03,00,49,8.90
2019,06,03,00,50,8.90
2019,06,03,00,51,8.90
2019,06,03,00,52,8.90
2019,06,03,00,53,8.80
2019,06,03,00,54,8.80
2019,06,03,00,55,8.80
2019,06,03,00,56,8.80
2019,06,03,00,57,8.80
2019,06,03,00,58,8.70
2019,06,03,00,59,8.70
2019,06,03,01,00,8.70
2019,06,03,01,01,8.70
2019,06,03,01,02,8.70
2019,06,03,01,03,8.60
2019,06,03,01,04,8.60
2019,06,03,01,05,8.60
2019,06,03,01,06,8.50
2019,06,03,01,07,8.50
2019,06,03,01,08,8.50
2019,06,03,01,09,8.40
2019,06,03,01,10,8.40
2019,06,03,01,11,8.40
2019,06,03,01,12,8.40
2019,06,03,01,13,8.40
2019,06,03,01,14,8.30
2019,06,03,01,15,8.30
2019,06,03,01,16,8.30
2019,06,03,01,17,8.30
2019,06,03,01,18,8.30
2019,06,03,01,19,8.30
2019,06,03,01,20,8.30
2019,06,03,01,21,8.40
2019,06,03,01,22,8.40
2019,06,03,01,23,8.30
2019,06,03,01,24,8.30
2019,06,03,01,25,8.30
2019,06,03,01,26,8.30
2019,06,03,01,27,8.30
2019,06,03,01,28,8.30
2019,06,03,01,29,8.30
2019,06,03,01,30,8.30
2019,06,03,01,31,8.30
2019,06,03,01,32,8.40
2019,06,03,01,33,8.40
2019,06,03,01,34,8.50
2019,06,03,01,35,8.50
2019,06,03,01,36,8.50
2019,06,03,01,37,8.50
2019,06,03,01,38,8.50
2019,06,03,01,39,8.40
2019,06,03,01,40,8.40
2019,06,03,01,41,8.40
2019,06,03,01,42,8.40
2019,06,03,01,43,8.40
2019,06,03,01,44,8.40
2019,06,03,01,45,8.30
2019,06,03,01,46,8.30
2019,06,03,01,47,8.30
2019,06,03,01,48,8.30
2019,06,03,01,49,8.30
2019,06,03,01,50,8.30
2019,06,03,01,51,8.30
2019,06,03,01,52,8.30
2019,06,03,01,53,8.30
2019,06,03,01,54,8.20
2019,06,03,01,55,8.20
2019,06,03,01,56,8.20
2019,06,03,01,57,8.20
2019,06,03,01,58,8.20
2019,06,03,01,59,8.20
2019,06,03,02,00,8.30
2019,06,03,02,01,8.30
2019,06,03,02,02,8.30
2019,06,03,02,03,8.30
2019,06,03,02,04,8.40
2019,06,03,02,05,8.40
2019,06,03,02,06,8.40
2019,06,03,02,07,8.40
2019,06,03,02,08,8.40
2019,06,03,02,09,8.40
2019,06,03,02,10,8.40
2019,06,03,02,11,8.40
2019,06,03,02,12,8.40
2019,06,03,02,13,8.30
2019,06,03,02,14,8.30
2019,06,03,02,15,8.30
2019,06,03,02,16,8.30
2019,06,03,02,17,8.30
2019,06,03,02,18,8.30
2019,06,03,02,19,8.30
2019,06,03,02,20,8.30
2019,06,03,02,21,8.30
2019,06,03,02,22,8.30
2019,06,03,02,23,8.20
2019,06,03,02,24,8.20
2019,06,03,02,25,8.20
2019,06,03,02,26,8.20
2019,06,03,02,27,8.20
2019,06,03,02,28,8.20
2019,06,03,02,29,8.20
2019,06,03,02,30,8.20
2019,06,03,02,31,8.10
2019,06,03,02,32,8.10
2019,06,03,02,33,8.10
2019,06,03,02,34,8.10
2019,06,03,02,35,8.00
2019,06,03,02,36,8.00
2019,06,03,02,37,8.00
2019,06,03,02,38,8.00
2019,06,03,02,39,8.00
2019,06,03,02,40,8.00
2019,06,03,02,41,7.90
2019,06,03,02,42,8.00
2019,06,03,02,43,8.00
2019,06,03,02,44,8.00
2019,06,03,02,45,7.90
2019,06,03,02,46,8.00
2019,06,03,02,47,8.00
2019,06,03,02,48,8.00
2019,06,03,02,49,8.00
2019,06,03,02,50,8.00
2019,06,03,02,51,8.00
2019,06,03,02,52,8.00
2019,06,03,02,53,8.00
2019,06,03,02,54,8.00
2019,06,03,02,55,8.00
2019,06,03,02,56,7.90
2019,06,03,02,57,7.90
2019,06,03,02,58,7.90
2019,06,03,02,59,7.90
2019,06,03,03,00,7.90
2019,06,03,03,01,7.90
2019,06,03,03,02,7.90
2019,06,03,03,03,7.90
2019,06,03,03,04,7.90
2019,06,03,03,05,7.90
2019,06,03,03,06,7.80
2019,06,03,03,07,7.80
2019,06,03,03,08,7.80
2019,06,03,03,09,7.80
2019,06,03,03,10,7.80
2019,06,03,03,11,7.80
2019,06,03,03,12,7.80
2019,06,03,03,13,7.80
2019,06,03,03,14,7.80
2019,06,03,03,15,7.80
2019,06,03,03,16,7.80
2019,06,03,03,17,7.80
2019,06,03,03,18,7.80
2019,06,03,03,19,7.80
2019,06,03,03,20,7.80
2019,06,03,03,21,7.80
2019,06,03,03,22,7.80
2019,06,03,03,23,7.80
2019,06,03,03,24,7.80
2019,06,03,03,25,7.80
2019,06,03,03,26,7.80
2019,06,03,03,27,7.80
2019,06,03,03,28,7.80
2019,06,03,03,29,7.80
2019,06,03,03,30,7.80
2019,06,03,03,31,7.80
2019,06,03,03,32,7.80
2019,06,03,03,33,7.70
2019,06,03,03,34,7.70
2019,06,03,03,35,7.70
2019,06,03,03,36,7.70
2019,06,03,03,37,7.70
2019,06,03,03,38,7.70
2019,06,03,03,39,7.70
2019,06,03,03,40,7.70
2019,06,03,03,41,7.80
2019,06,03,03,42,7.80
2019,06,03,03,43,7.80
2019,06,03,03,44,7.80
2019,06,03,03,45,7.80
2019,06,03,03,46,7.80
2019,06,03,03,47,7.80
2019,06,03,03,48,7.80
2019,06,03,03,49,7.80
2019,06,03,03,50,7.80
2019,06,03,03,51,7.80
2019,06,03,03,52,7.80
2019,06,03,03,53,7.80
2019,06,03,03,54,7.80
2019,06,03,03,55,7.80
2019,06,03,03,56,7.80
2019,06,03,03,57,7.80
2019,06,03,03,58,7.80
2019,06,03,03,59,7.80
2019,06,03,04,00,7.80
2019,06,03,04,01,7.80
2019,06,03,04,02,7.80
2019,06,03,04,03,7.80
2019,06,03,04,04,7.80
2019,06,03,04,05,7.80
2019,06,03,04,06,7.80
2019,06,03,04,07,7.80
2019,06,03,04,08,7.80
2019,06,03,04,09,7.80
2019,06,03,04,10,7.80
2019,06,03,04,11,7.80
2019,06,03,04,12,7.80
2019,06,03,04,13,7.80
2019,06,03,04,14,7.80
2019,06,03,04,15,7.70
2019,06,03,04,16,7.70
2019,06,03,04,17,7.70
2019,06,03,04,18,7.70
2019,06,03,04,19,7.60
2019,06,03,04,20,7.60
2019,06,03,04,21,7.60
2019,06,03,04,22,7.60
2019,06,03,04,23,7.60
2019,06,03,04,24,7.60
2019,06,03,04,25,7.60
2019,06,03,04,26,7.60
2019,06,03,04,27,7.60
2019,06,03,04,28,7.60
2019,06,03,04,29,7.60
2019,06,03,04,30,7.60
2019,06,03,04,31,7.60
2019,06,03,04,32,7.50
2019,06,03,04,33,7.50
2019,06,03,04,34,7.50
2019,06,03,04,35,7.50
2019,06,03,04,36,7.40
2019,06,03,04,37,7.40
2019,06,03,04,38,7.40
2019,06,03,04,39,7.40
2019,06,03,04,40,7.40
2019,06,03,04,41,7.40
2019,06,03,04,42,7.40
2019,06,03,04,43,7.40
2019,06,03,04,44,7.40
2019,06,03,04,45,7.40
2019,06,03,04,46,7.40
2019,06,03,04,47,7.40
2019,06,03,04,48,7.40
2019,06,03,04,49,7.40
2019,06,03,04,50,7.40
2019,06,03,04,51,7.40
2019,06,03,04,52,7.40
2019,06,03,04,53,7.40
2019,06,03,04,54,7.40
2019,06,03,04,55,7.40
2019,06,03,04,56,7.40
2019,06,03,04,57,7.40
2019,06,03,04,58,7.40
2019,06,03,04,59,7.40
2019,06,03,05,00,7.40
2019,06,03,05,01,7.50
2019,06,03,05,02,7.50
2019,06,03,05,03,7.50
2019,06,03,05,04,7.50
2019,06,03,05,05,7.60
2019,06,03,05,06,7.60
2019,06,03,05,07,7.60
2019,06,03,05,08,7.60
2019,06,03,05,09,7.60
2019,06,03,05,10,7.60
2019,06,03,05,11,7.60
2019,06,03,05,12,7.70
2019,06,03,05,13,7.70
2019,06,03,05,14,7.70
2019,06,03,05,15,7.70
2019,06,03,05,16,7.70
2019,06,03,05,17,7.70
2019,06,03,05,18,7.70
2019,06,03,05,19,7.70
2019,06,03,05,20,7.70
2019,06,03,05,21,7.70
2019,06,03,05,22,7.70
2019,06,03,05,23,7.70
2019,06,03,05,24,7.70
2019,06,03,05,25,7.70
2019,06,03,05,26,7.70
2019,06,03,05,27,7.70
2019,06,03,05,28,7.70
2019,06,03,05,29,7.70
2019,06,03,05,30,7.70
2019,06,03,05,31,7.70
2019,06,03,05,32,7.70
2019,06,03,05,33,7.80
2019,06,03,05,34,7.80
2019,06,03,05,35,7.80
2019,06,03,05,36,7.80
2019,06,03,05,37,7.80
2019,06,03,05,38,7.70
2019,06,03,05,39,7.70
2019,06,03,05,40,7.70
2019,06,03,05,41,7.70
2019,06,03,05,42,7.70
2019,06,03,05,43,7.60
2019,06,03,05,44,7.60
2019,06,03,05,45,7.60
2019,06,03,05,46,7.60
2019,06,03,05,47,7.50
2019,06,03,05,48,7.50
2019,06,03,05,49,7.50
2019,06,03,05,50,7.50
2019,06,03,05,51,7.50
2019,06,03,05,52,7.50
2019,06,03,05,53,7.50
2019,06,03,05,54,7.50
2019,06,03,05,55,7.50
2019,06,03,05,56,7.50
2019,06,03,05,57,7.50
2019,06,03,05,58,7.50
2019,06,03,05,59,7.50
2019,06,03,06,00,7.50
2019,06,03,06,01,7.60
2019,06,03,06,02,7.60
2019,06,03,06,03,7.60
2019,06,03,06,04,7.60
2019,06,03,06,05,7.60
2019,06,03,06,06,7.60
2019,06,03,06,07,7.60
2019,06,03,06,08,7.60
2019,06,03,06,09,7.60
2019,06,03,06,10,7.60
2019,06,03,06,11,7.70
2019,06,03,06,12,7.70
2019,06,03,06,13,7.70
2019,06,03,06,14,7.70
2019,06,03,06,15,7.70
2019,06,03,06,16,7.70
2019,06,03,06,17,7.70
2019,06,03,06,18,7.70
2019,06,03,06,19,7.70
2019,06,03,06,20,7.70
2019,06,03,06,21,7.70
2019,06,03,06,22,7.70
2019,06,03,06,23,7.70
2019,06,03,06,24,7.80
2019,06,03,06,25,7.80
2019,06,03,06,26,7.80
2019,06,03,06,27,7.80
2019,06,03,06,28,7.80
2019,06,03,06,29,7.80
2019,06,03,06,30,7.80
2019,06,03,06,31,7.90
2019,06,03,06,32,7.90
2019,06,03,06,33,7.90
2019,06,03,06,34,7.90
2019,06,03,06,35,7.90
2019,06,03,06,36,8.00
2019,06,03,06,37,8.00
2019,06,03,06,38,8.00
2019,06,03,06,39,8.10
2019,06,03,06,40,8.10
2019,06,03,06,41,8.20
2019,06,03,06,42,8.20
2019,06,03,06,43,8.30
2019,06,03,06,44,8.30
2019,06,03,06,45,8.30
2019,06,03,06,46,8.30
2019,06,03,06,47,8.30
2019,06,03,06,48,8.30
2019,06,03,06,49,8.30
2019,06,03,06,50,8.40
2019,06,03,06,51,8.40
2019,06,03,06,52,8.40
2019,06,03,06,53,8.40
2019,06,03,06,54,8.40
2019,06,03,06,55,8.50
2019,06,03,06,56,8.50
2019,06,03,06,57,8.60
2019,06,03,06,58,8.60
2019,06,03,06,59,8.60
2019,06,03,07,00,8.70
2019,06,03,07,01,8.70
2019,06,03,07,02,8.80
2019,06,03,07,03,8.80
2019,06,03,07,04,8.90
2019,06,03,07,05,8.90
2019,06,03,07,06,8.90
2019,06,03,07,07,9.00
2019,06,03,07,08,9.00
2019,06,03,07,09,9.10
2019,06,03,07,10,9.10
2019,06,03,07,11,9.20
2019,06,03,07,12,9.20
2019,06,03,07,13,9.20
2019,06,03,07,14,9.20
2019,06,03,07,15,9.30
2019,06,03,07,16,9.30
2019,06,03,07,17,9.30
2019,06,03,07,18,9.30
2019,06,03,07,19,9.30
2019,06,03,07,20,9.30
2019,06,03,07,21,9.30
2019,06,03,07,22,9.30
2019,06,03,07,23,9.40
2019,06,03,07,24,9.40
2019,06,03,07,25,9.40
2019,06,03,07,26,9.40
2019,06,03,07,27,9.40
2019,06,03,07,28,9.50
2019,06,03,07,29,9.50
2019,06,03,07,30,9.60
2019,06,03,07,31,9.60
2019,06,03,07,32,9.70
2019,06,03,07,33,9.80
2019,06,03,07,34,9.80
2019,06,03,07,35,9.90
2019,06,03,07,36,9.90
2019,06,03,07,37,10.00
2019,06,03,07,38,10.00
2019,06,03,07,39,10.10
2019,06,03,07,40,10.20
2019,06,03,07,41,10.20
2019,06,03,07,42,10.30
2019,06,03,07,43,10.40
2019,06,03,07,44,10.40
2019,06,03,07,45,10.50
2019,06,03,07,46,10.50
2019,06,03,07,47,10.60
2019,06,03,07,48,10.60
2019,06,03,07,49,10.70
2019,06,03,07,50,10.80
2019,06,03,07,51,10.80
2019,06,03,07,52,10.90
2019,06,03,07,53,11.00
2019,06,03,07,54,11.00
2019,06,03,07,55,11.10
2019,06,03,07,56,11.10
2019,06,03,07,57,11.20
2019,06,03,07,58,11.30
2019,06,03,07,59,11.40
2019,06,03,08,00,11.50
2019,06,03,08,01,11.60
2019,06,03,08,02,11.60
2019,06,03,08,03,11.70
2019,06,03,08,04,11.80
2019,06,03,08,05,11.80
2019,06,03,08,06,11.90
2019,06,03,08,07,11.90
2019,06,03,08,08,12.00
2019,06,03,08,09,12.10
2019,06,03,08,10,12.20
2019,06,03,08,11,12.30
2019,06,03,08,12,12.40
2019,06,03,08,13,12.50
2019,06,03,08,14,12.60
2019,06,03,08,15,12.60
2019,06,03,08,16,12.70
2019,06,03,08,17,12.80
2019,06,03,08,18,12.80
2019,06,03,08,19,12.80
2019,06,03,08,20,12.90
2019,06,03,08,21,12.90
2019,06,03,08,22,13.00
2019,06,03,08,23,13.00
2019,06,03,08,24,13.10
2019,06,03,08,25,13.20
2019,06,03,08,26,13.20
2019,06,03,08,27,13.30
2019,06,03,08,28,13.30
2019,06,03,08,29,13.40
2019,06,03,08,30,13.50
2019,06,03,08,31,13.50
2019,06,03,08,32,13.60
2019,06,03,08,33,13.60
2019,06,03,08,34,13.60
2019,06,03,08,35,13.50
2019,06,03,08,36,13.50
2019,06,03,08,37,13.50
2019,06,03,08,38,13.50
2019,06,03,08,39,13.50
2019,06,03,08,40,13.60
2019,06,03,08,41,13.60
2019,06,03,08,42,13.70
2019,06,03,08,43,13.70
2019,06,03,08,44,13.70
2019,06,03,08,45,13.70
2019,06,03,08,46,13.70
2019,06,03,08,47,13.70
2019,06,03,08,48,13.70
2019,06,03,08,49,13.70
2019,06,03,08,50,13.80
2019,06,03,08,51,13.80
2019,06,03,08,52,13.80
2019,06,03,08,53,13.80
2019,06,03,08,54,13.70
2019,06,03,08,55,13.70
2019,06,03,08,56,13.70
2019,06,03,08,57,13.70
2019,06,03,08,58,13.70
2019,06,03,08,59,13.70
2019,06,03,09,00,13.80
2019,06,03,09,01,13.80
2019,06,03,09,02,13.80
2019,06,03,09,03,13.80
2019,06,03,09,04,13.80
2019,06,03,09,05,13.80
2019,06,03,09,06,13.80
2019,06,03,09,07,13.80
2019,06,03,09,08,13.80
2019,06,03,09,09,13.80
2019,06,03,09,10,13.80
2019,06,03,09,11,13.80
2019,06,03,09,12,13.70
2019,06,03,09,13,13.70
2019,06,03,09,14,13.80
2019,06,03,09,15,13.80
2019,06,03,09,16,13.80
2019,06,03,09,17,13.90
2019,06,03,09,18,13.90
2019,06,03,09,19,13.90
2019,06,03,09,20,13.90
2019,06,03,09,21,13.90
2019,06,03,09,22,13.90
2019,06,03,09,23,13.90
2019,06,03,09,24,13.90
2019,06,03,09,25,13.90
2019,06,03,09,26,13.90
2019,06,03,09,27,13.90
2019,06,03,09,28,13.90
2019,06,03,09,29,13.90
2019,06,03,09,30,14.00
2019,06,03,09,31,14.00
2019,06,03,09,32,14.00
2019,06,03,09,33,14.10
2019,06,03,09,34,14.10
2019,06,03,09,35,14.20
2019,06,03,09,36,14.20
2019,06,03,09,37,14.20
2019,06,03,09,38,14.20
2019,06,03,09,39,14.30
2019,06,03,09,40,14.30
2019,06,03,09,41,14.40
2019,06,03,09,42,14.50
2019,06,03,09,43,14.60
2019,06,03,09,44,14.60
2019,06,03,09,45,14.70
2019,06,03,09,46,14.70
2019,06,03,09,47,14.70
2019,06,03,09,48,14.70
2019,06,03,09,49,14.70
2019,06,03,09,50,14.70
2019,06,03,09,51,14.70
2019,06,03,09,52,14.70
2019,06,03,09,53,14.70
2019,06,03,09,54,14.80
2019,06,03,09,55,14.80
2019,06,03,09,56,14.80
2019,06,03,09,57,14.80
2019,06,03,09,58,14.80
2019,06,03,09,59,14.80
2019,06,03,10,00,14.70
2019,06,03,10,01,14.70
2019,06,03,10,02,14.70
2019,06,03,10,03,14.70
2019,06,03,10,04,14.70
2019,06,03,10,05,14.70
2019,06,03,10,06,14.70
2019,06,03,10,07,14.70
2019,06,03,10,08,14.70
2019,06,03,10,09,14.70
2019,06,03,10,10,14.80
2019,06,03,10,11,14.80
2019,06,03,10,12,14.80
2019,06,03,10,13,14.80
2019,06,03,10,14,14.90
2019,06,03,10,15,14.90
2019,06,03,10,16,14.90
2019,06,03,10,17,15.00
2019,06,03,10,18,15.00
2019,06,03,10,19,15.00
2019,06,03,10,20,15.10
2019,06,03,10,21,15.10
2019,06,03,10,22,15.20
2019,06,03,10,23,15.30
2019,06,03,10,24,15.30
2019,06,03,10,25,15.30
2019,06,03,10,26,15.30
2019,06,03,10,27,15.30
2019,06,03,10,28,15.30
2019,06,03,10,29,15.30
2019,06,03,10,30,15.30
2019,06,03,10,31,15.30
2019,06,03,10,32,15.30
2019,06,03,10,33,15.40
2019,06,03,10,34,15.40
2019,06,03,10,35,15.40
2019,06,03,10,36,15.30
2019,06,03,10,37,15.30
2019,06,03,10,38,15.30
2019,06,03,10,39,15.30
2019,06,03,10,40,15.30
2019,06,03,10,41,15.40
2019,06,03,10,42,15.40
2019,06,03,10,43,15.40
2019,06,03,10,44,15.50
2019,06,03,10,45,15.60
2019,06,03,10,46,15.60
2019,06,03,10,47,15.70
2019,06,03,10,48,15.70
2019,06,03,10,49,15.70
2019,06,03,10,50,15.70
2019,06,03,10,51,15.70
2019,06,03,10,52,15.70
2019,06,03,10,53,15.70
2019,06,03,10,54,15.70
2019,06,03,10,55,15.60
2019,06,03,10,56,15.50
2019,06,03,10,57,15.50
2019,06,03,10,58,15.40
2019,06,03,10,59,15.40
2019,06,03,11,00,15.40
2019,06,03,11,01,15.40
2019,06,03,11,02,15.30
2019,06,03,11,03,15.30
2019,06,03,11,04,15.30
2019,06,03,11,05,15.30
2019,06,03,11,06,15.30
2019,06,03,11,07,15.30
2019,06,03,11,08,15.30
2019,06,03,11,09,15.30
2019,06,03,11,10,15.30
2019,06,03,11,11,15.30
2019,06,03,11,12,15.30
2019,06,03,11,13,15.30
2019,06,03,11,14,15.40
2019,06,03,11,15,15.40
2019,06,03,11,16,15.50
2019,06,03,11,17,15.60
2019,06,03,11,18,15.60
2019,06,03,11,19,15.60
2019,06,03,11,20,15.60
2019,06,03,11,21,15.60
2019,06,03,11,22,15.60
2019,06,03,11,23,15.60
2019,06,03,11,24,15.60
2019,06,03,11,25,15.60
2019,06,03,11,26,15.60
2019,06,03,11,27,15.50
2019,06,03,11,28,15.50
2019,06,03,11,29,15.50
2019,06,03,11,30,15.40
2019,06,03,11,31,15.40
2019,06,03,11,32,15.50
2019,06,03,11,33,15.50
2019,06,03,11,34,15.60
2019,06,03,11,35,15.70
2019,06,03,11,36,15.80
2019,06,03,11,37,15.90
2019,06,03,11,38,16.00
2019,06,03,11,39,16.10
2019,06,03,11,40,16.10
2019,06,03,11,41,16.10
2019,06,03,11,42,16.10
2019,06,03,11,43,16.20
2019,06,03,11,44,16.20
2019,06,03,11,45,16.30
2019,06,03,11,46,16.30
2019,06,03,11,47,16.40
2019,06,03,11,48,16.40
2019,06,03,11,49,16.40
2019,06,03,11,50,16.50
2019,06,03,11,51,16.60
2019,06,03,11,52,16.60
2019,06,03,11,53,16.70
2019,06,03,11,54,16.70
2019,06,03,11,55,16.70
2019,06,03,11,56,16.80
2019,06,03,11,57,16.80
2019,06,03,11,58,16.90
2019,06,03,11,59,16.90
2019,06,03,12,00,16.90
2019,06,03,12,01,16.90
2019,06,03,12,02,17.00
2019,06,03,12,03,17.00
2019,06,03,12,04,17.00
2019,06,03,12,05,16.90
2019,06,03,12,06,16.90
2019,06,03,12,07,16.80
2019,06,03,12,08,16.80
2019,06,03,12,09,16.80
2019,06,03,12,10,16.80
2019,06,03,12,11,16.80
2019,06,03,12,12,16.80
2019,06,03,12,13,16.80
2019,06,03,12,14,16.80
2019,06,03,12,15,16.80
2019,06,03,12,16,16.90
2019,06,03,12,17,16.90
2019,06,03,12,18,17.00
2019,06,03,12,19,17.10
2019,06,03,12,20,17.10
2019,06,03,12,21,17.20
2019,06,03,12,22,17.30
2019,06,03,12,23,17.30
2019,06,03,12,24,17.30
2019,06,03,12,25,17.40
2019,06,03,12,26,17.50
2019,06,03,12,27,17.60
2019,06,03,12,28,17.70
2019,06,03,12,29,17.80
2019,06,03,12,30,17.90
2019,06,03,12,31,18.00
2019,06,03,12,32,18.00
2019,06,03,12,33,18.10
2019,06,03,12,34,18.00
2019,06,03,12,35,18.00
2019,06,03,12,36,17.90
2019,06,03,12,37,17.80
2019,06,03,12,38,17.80
2019,06,03,12,39,17.70
2019,06,03,12,40,17.70
2019,06,03,12,41,17.60
2019,06,03,12,42,17.60
2019,06,03,12,43,17.60
2019,06,03,12,44,17.60
2019,06,03,12,45,17.70
2019,06,03,12,46,17.80
2019,06,03,12,47,17.80
2019,06,03,12,48,17.90
2019,06,03,12,49,17.90
2019,06,03,12,50,17.90
2019,06,03,12,51,17.90
2019,06,03,12,52,17.90
2019,06,03,12,53,17.90
2019,06,03,12,54,17.80
2019,06,03,12,55,17.80
2019,06,03,12,56,17.80
2019,06,03,12,57,17.90
2019,06,03,12,58,17.90
2019,06,03,12,59,17.90
2019,06,03,13,00,18.00
2019,06,03,13,01,18.10
2019,06,03,13,02,18.10
2019,06,03,13,03,18.20
2019,06,03,13,04,18.20
2019,06,03,13,05,18.20
2019,06,03,13,06,18.20
2019,06,03,13,07,18.20
2019,06,03,13,08,18.20
2019,06,03,13,09,18.20
2019,06,03,13,10,18.20
2019,06,03,13,11,18.10
2019,06,03,13,12,18.10
2019,06,03,13,13,18.00
2019,06,03,13,14,18.00
2019,06,03,13,15,17.90
2019,06,03,13,16,17.90
2019,06,03,13,17,17.90
2019,06,03,13,18,17.90
2019,06,03,13,19,17.90
2019,06,03,13,20,18.00
2019,06,03,13,21,18.00
2019,06,03,13,22,18.10
2019,06,03,13,23,18.10
2019,06,03,13,24,18.10
2019,06,03,13,25,18.10
2019,06,03,13,26,18.00
2019,06,03,13,27,18.00
2019,06,03,13,28,18.00
2019,06,03,13,29,18.10
2019,06,03,13,30,18.10
2019,06,03,13,31,18.10
2019,06,03,13,32,18.20
2019,06,03,13,33,18.30
2019,06,03,13,34,18.30
2019,06,03,13,35,18.30
2019,06,03,13,36,18.30
2019,06,03,13,37,18.30
2019,06,03,13,38,18.40
2019,06,03,13,39,18.40
2019,06,03,13,40,18.40
2019,06,03,13,41,18.50
2019,06,03,13,42,18.60
2019,06,03,13,43,18.60
2019,06,03,13,44,18.70
2019,06,03,13,45,18.70
2019,06,03,13,46,18.70
2019,06,03,13,47,18.50
2019,06,03,13,48,18.40
2019,06,03,13,49,18.20
2019,06,03,13,50,18.10
2019,06,03,13,51,17.90
2019,06,03,13,52,17.80
2019,06,03,13,53,17.60
2019,06,03,13,54,17.50
2019,06,03,13,55,17.50
2019,06,03,13,56,17.40
2019,06,03,13,57,17.30
2019,06,03,13,58,17.10
2019,06,03,13,59,17.00
2019,06,03,14,00,16.90
2019,06,03,14,01,16.90
2019,06,03,14,02,16.80
2019,06,03,14,03,16.80
2019,06,03,14,04,16.70
2019,06,03,14,05,16.60
2019,06,03,14,06,16.60
2019,06,03,14,07,16.50
2019,06,03,14,08,16.50
2019,06,03,14,09,16.60
2019,06,03,14,10,16.60
2019,06,03,14,11,16.60
2019,06,03,14,12,16.70
2019,06,03,14,13,16.70
2019,06,03,14,14,16.70
2019,06,03,14,15,16.70
2019,06,03,14,16,16.60
2019,06,03,14,17,16.60
2019,06,03,14,18,16.60
2019,06,03,14,19,16.50
2019,06,03,14,20,16.40
2019,06,03,14,21,16.40
2019,06,03,14,22,16.40
2019,06,03,14,23,16.40
2019,06,03,14,24,16.50
2019,06,03,14,25,16.50
2019,06,03,14,26,16.60
2019,06,03,14,27,16.60
2019,06,03,14,28,16.70
2019,06,03,14,29,16.70
2019,06,03,14,30,16.80
2019,06,03,14,31,16.90
2019,06,03,14,32,16.90
2019,06,03,14,33,17.00
2019,06,03,14,34,17.00
2019,06,03,14,35,17.10
2019,06,03,14,36,17.10
2019,06,03,14,37,17.20
2019,06,03,14,38,17.20
2019,06,03,14,39,17.20
2019,06,03,14,40,17.20
2019,06,03,14,41,17.20
2019,06,03,14,42,17.30
2019,06,03,14,43,17.30
2019,06,03,14,44,17.30
2019,06,03,14,45,17.30
2019,06,03,14,46,17.20
2019,06,03,14,47,17.20
2019,06,03,14,48,17.20
2019,06,03,14,49,17.20
2019,06,03,14,50,17.20
2019,06,03,14,51,17.20
2019,06,03,14,52,17.20
2019,06,03,14,53,17.20
2019,06,03,14,54,17.20
2019,06,03,14,55,17.20
2019,06,03,14,56,17.20
2019,06,03,14,57,17.20
2019,06,03,14,58,17.20
2019,06,03,14,59,17.20
2019,06,03,15,00,17.20
2019,06,03,15,01,17.30
2019,06,03,15,02,17.30
2019,06,03,15,03,17.30
2019,06,03,15,04,17.30
2019,06,03,15,05,17.30
2019,06,03,15,06,17.30
2019,06,03,15,07,17.30
2019,06,03,15,08,17.30
2019,06,03,15,09,17.40
2019,06,03,15,10,17.40
2019,06,03,15,11,17.50
2019,06,03,15,12,17.50
2019,06,03,15,13,17.60
2019,06,03,15,14,17.60
2019,06,03,15,15,17.60
2019,06,03,15,16,17.60
2019,06,03,15,17,17.70
2019,06,03,15,18,17.70
2019,06,03,15,19,17.80
2019,06,03,15,20,17.80
2019,06,03,15,21,17.90
2019,06,03,15,22,17.90
2019,06,03,15,23,18.00
2019,06,03,15,24,18.10
2019,06,03,15,25,18.10
2019,06,03,15,26,18.10
2019,06,03,15,27,18.10
2019,06,03,15,28,18.10
2019,06,03,15,29,18.10
2019,06,03,15,30,18.00
2019,06,03,15,31,18.00
2019,06,03,15,32,17.90
2019,06,03,15,33,17.90
2019,06,03,15,34,17.90
2019,06,03,15,35,17.90
2019,06,03,15,36,17.90
2019,06,03,15,37,17.90
2019,06,03,15,38,17.90
2019,06,03,15,39,18.00
2019,06,03,15,40,18.10
2019,06,03,15,41,18.20
2019,06,03,15,42,18.30
2019,06,03,15,43,18.40
2019,06,03,15,44,18.50
2019,06,03,15,45,18.60
2019,06,03,15,46,18.70
2019,06,03,15,47,18.80
2019,06,03,15,48,18.90
2019,06,03,15,49,19.00
2019,06,03,15,50,19.20
2019,06,03,15,51,19.20
2019,06,03,15,52,19.30
2019,06,03,15,53,19.20
2019,06,03,15,54,19.20
2019,06,03,15,55,19.20
2019,06,03,15,56,19.30
2019,06,03,15,57,19.20
2019,06,03,15,58,19.20
2019,06,03,15,59,19.10
2019,06,03,16,00,19.10
2019,06,03,16,01,19.10
2019,06,03,16,02,19.10
2019,06,03,16,03,19.00
2019,06,03,16,04,18.90
2019,06,03,16,05,18.90
2019,06,03,16,06,18.80
2019,06,03,16,07,18.80
2019,06,03,16,08,18.80
2019,06,03,16,09,18.70
2019,06,03,16,10,18.70
2019,06,03,16,11,18.70
2019,06,03,16,12,18.70
2019,06,03,16,13,18.60
2019,06,03,16,14,18.60
2019,06,03,16,15,18.60
2019,06,03,16,16,18.60
2019,06,03,16,17,18.50
2019,06,03,16,18,18.50
2019,06,03,16,19,18.50
2019,06,03,16,20,18.50
2019,06,03,16,21,18.60
2019,06,03,16,22,18.60
2019,06,03,16,23,18.60
2019,06,03,16,24,18.60
2019,06,03,16,25,18.60
2019,06,03,16,26,18.60
2019,06,03,16,27,18.60
2019,06,03,16,28,18.60
2019,06,03,16,29,18.60
2019,06,03,16,30,18.50
2019,06,03,16,31,18.50
2019,06,03,16,32,18.50
2019,06,03,16,33,18.60
2019,06,03,16,34,18.60
2019,06,03,16,35,18.60
2019,06,03,16,36,18.60
2019,06,03,16,37,18.60
2019,06,03,16,38,18.60
2019,06,03,16,39,18.60
2019,06,03,16,40,18.50
2019,06,03,16,41,18.50
2019,06,03,16,42,18.40
2019,06,03,16,43,18.30
2019,06,03,16,44,18.30
2019,06,03,16,45,18.30
2019,06,03,16,46,18.20
2019,06,03,16,47,18.20
2019,06,03,16,48,18.20
2019,06,03,16,49,18.20
2019,06,03,16,50,18.20
2019,06,03,16,51,18.20
2019,06,03,16,52,18.20
2019,06,03,16,53,18.20
2019,06,03,16,54,18.20
2019,06,03,16,55,18.20
2019,06,03,16,56,18.20
2019,06,03,16,57,18.20
2019,06,03,16,58,18.20
2019,06,03,16,59,18.20
2019,06,03,17,00,18.20
2019,06,03,17,01,18.30
2019,06,03,17,02,18.20
2019,06,03,17,03,18.20
2019,06,03,17,04,18.20
2019,06,03,17,05,18.20
2019,06,03,17,06,18.20
2019,06,03,17,07,18.20
2019,06,03,17,08,18.20
2019,06,03,17,09,18.20
2019,06,03,17,10,18.20
2019,06,03,17,11,18.20
2019,06,03,17,12,18.20
2019,06,03,17,13,18.20
2019,06,03,17,14,18.20
2019,06,03,17,15,18.20
2019,06,03,17,16,18.10
2019,06,03,17,17,18.10
2019,06,03,17,18,18.10
2019,06,03,17,19,18.10
2019,06,03,17,20,18.10
2019,06,03,17,21,18.10
2019,06,03,17,22,18.10
2019,06,03,17,23,18.10
2019,06,03,17,24,18.10
2019,06,03,17,25,18.10
2019,06,03,17,26,18.10
2019,06,03,17,27,18.00
2019,06,03,17,28,18.00
2019,06,03,17,29,18.00
2019,06,03,17,30,18.00
2019,06,03,17,31,17.90
2019,06,03,17,32,17.90
2019,06,03,17,33,17.90
2019,06,03,17,34,17.90
2019,06,03,17,35,17.90
2019,06,03,17,36,17.80
2019,06,03,17,37,17.80
2019,06,03,17,38,17.80
2019,06,03,17,39,17.80